Date String (YYYY-MM-DD hh:mm:ss) UTC,Instrument flags,Ambient pressure (hPa),Sample flow (lpm),Bypass flow (lpm),Sample temperature (°C),Ambient temperature (°C),ASC tube jacket temperature (°C),LED temperature (°C),Box temperature (°C),Sample RH (%),Span deviation,Mass concentration (μg/m³),Mass concentration (μg/m³),Mass concentration (μg/m³)
DateTimeUTC,F1_M11,P_M11,Q1_M11,Q2_M11,T1_M11,T2_M11,T3_M11,T4_M11,T5_M11,U1_M11,ZSPAN_M11,X0_M11,X2_M11,X1_M11
2023-02-16 12:00:00,,0826.0,5.01,0.00,22.2,21.4,00.0,31.0,23.8,06.5,0000.0,0008.74,0004.47,0003.95
2023-02-16 12:01:00,,0826.0,5.01,0.00,22.1,20.8,00.0,31.0,23.6,06.5,0000.0,0008.44,0004.45,0003.98
2023-02-16 12:02:00,,0826.0,4.98,0.00,22.0,20.3,00.0,31.0,23.3,06.5,0000.0,0008.39,0004.47,0004.00
2023-02-16 12:03:00,,0826.0,5.00,0.00,21.9,19.9,00.0,30.9,23.2,06.6,0000.0,0008.32,0004.51,0004.03
2023-02-16 12:04:00,,0826.0,5.02,0.00,21.8,19.9,00.0,30.9,23.2,06.6,0000.0,0007.96,0004.51,0004.06
2023-02-16 12:05:00,,0826.0,4.98,0.00,21.9,21.1,00.0,30.8,23.5,06.6,0000.0,0007.91,0004.51,0004.09
2023-02-16 12:06:00,,0826.0,5.01,0.00,22.0,22.1,00.0,30.8,23.9,06.6,0000.0,0007.77,0004.50,0004.11
2023-02-16 12:07:00,,0826.0,5.08,0.00,22.1,22.8,00.0,30.8,24.1,06.5,0000.0,0007.59,0004.48,0004.13
2023-02-16 12:08:00,,0826.0,5.06,0.00,22.2,22.7,00.0,30.9,24.1,06.5,0000.0,0007.31,0004.47,0004.14
2023-02-16 12:09:00,,0826.0,5.00,0.00,22.2,21.8,00.0,30.9,23.9,06.5,0000.0,0007.35,0004.49,0004.16
2023-02-16 12:10:00,,0826.0,5.00,0.00,22.1,21.0,00.0,31.0,23.5,06.6,0000.0,0006.67,0004.49,0004.16
2023-02-16 12:11:00,,0826.0,4.98,0.00,21.9,20.3,00.0,30.9,23.3,06.6,0000.0,0006.65,0004.49,0004.15
2023-02-16 12:12:00,,0826.0,4.98,0.00,21.8,19.8,00.0,30.9,23.1,06.7,0000.0,0006.63,0004.49,0004.15
2023-02-16 12:13:00,,0826.0,5.03,0.00,21.8,20.3,00.0,30.9,23.2,06.7,0000.0,0006.89,0004.45,0004.15
2023-02-16 12:14:00,,0826.0,5.01,0.00,21.9,21.6,00.0,30.8,23.6,06.7,0000.0,0007.84,0004.44,0004.15
2023-02-16 12:15:00,,0826.0,5.05,0.00,22.0,22.5,00.0,30.8,23.9,06.6,0000.0,0007.80,0004.41,0004.13
2023-02-16 12:16:00,,0826.0,4.95,0.00,22.1,22.5,00.0,30.9,24.0,06.6,0000.0,0007.82,0004.41,0004.13
2023-02-16 12:17:00,,0826.0,5.01,0.00,22.1,21.5,00.0,30.9,23.7,06.6,0000.0,0007.78,0004.39,0004.12
2023-02-16 12:18:00,,0826.0,4.98,0.00,21.9,20.7,00.0,30.9,23.4,06.7,0000.0,0007.81,0004.40,0004.12
2023-02-16 12:19:00,,0825.9,5.01,0.00,21.8,20.0,00.0,30.9,23.1,06.7,0000.0,0007.80,0004.39,0004.12
2023-02-16 12:20:00,,0826.0,5.02,0.00,21.6,19.4,00.0,30.8,22.8,06.8,0000.0,0007.75,0004.36,0004.11
2023-02-16 12:21:00,,0826.0,5.01,0.00,21.6,20.1,00.0,30.8,23.0,06.8,0000.0,0007.70,0004.34,0004.10
2023-02-16 12:22:00,,0826.0,4.97,0.00,21.7,21.3,00.0,30.7,23.4,06.7,0000.0,0007.64,0004.32,0004.09
2023-02-16 12:23:00,,0826.0,4.97,0.00,21.9,22.2,00.0,30.7,23.7,06.7,0000.0,0007.69,0004.33,0004.07
2023-02-16 12:24:00,,0826.2,5.01,0.00,22.0,22.7,00.0,30.7,23.9,06.6,0000.0,0007.34,0004.31,0004.05
2023-02-16 12:25:00,,0826.2,5.03,0.00,22.0,22.1,00.0,30.8,23.8,06.6,0000.0,0006.00,0004.27,0004.03
2023-02-16 12:26:00,,0826.2,5.02,0.00,22.0,21.2,00.0,30.8,23.5,06.6,0000.0,0005.94,0004.25,0004.02
2023-02-16 12:27:00,,0826.2,4.99,0.00,21.8,20.5,00.0,30.8,23.2,06.6,0000.0,0005.88,0004.22,0004.00
2023-02-16 12:28:00,,0826.2,5.01,0.00,21.7,20.0,00.0,30.8,23.0,06.7,0000.0,0005.98,0004.22,0003.98
2023-02-16 12:29:00,,0826.2,5.01,0.00,21.6,19.5,00.0,30.8,22.8,06.7,0000.0,0006.07,0004.20,0003.97
2023-02-16 12:30:00,,0826.2,5.02,0.00,21.6,20.1,00.0,30.7,23.0,06.7,0000.0,0006.05,0004.19,0003.94
2023-02-16 12:31:00,,0826.2,5.00,0.00,21.7,21.3,00.0,30.7,23.3,06.7,0000.0,0006.10,0004.18,0003.91
2023-02-16 12:32:00,,0826.1,5.10,0.00,21.8,22.1,00.0,30.7,23.7,06.6,0000.0,0006.02,0004.14,0003.87
2023-02-16 12:33:00,,0826.1,4.97,0.00,21.9,22.6,00.0,30.7,23.9,06.6,0000.0,0005.99,0004.11,0003.84
2023-02-16 12:34:00,,0826.1,4.99,0.00,22.0,21.9,00.0,30.7,23.7,06.5,0000.0,0005.87,0004.06,0003.80
2023-02-16 12:35:00,,0826.1,5.01,0.00,21.9,21.0,00.0,30.8,23.3,06.6,0000.0,0005.79,0004.03,0003.77
2023-02-16 12:36:00,,0826.1,4.99,0.00,21.7,20.3,00.0,30.7,23.1,06.6,0000.0,0005.80,0004.01,0003.75
2023-02-16 12:37:00,,0826.2,4.99,0.00,21.6,19.7,00.0,30.7,22.8,06.6,0000.0,0005.99,0004.02,0003.72
2023-02-16 12:38:00,,0826.2,5.01,0.00,21.5,20.2,00.0,30.6,23.0,06.7,0000.0,0005.99,0004.01,0003.71
2023-02-16 12:39:00,,0826.2,5.03,0.00,21.7,21.4,00.0,30.6,23.3,06.6,0000.0,0005.87,0003.97,0003.68
2023-02-16 12:40:00,,0826.2,4.98,0.00,21.8,22.3,00.0,30.6,23.7,06.6,0000.0,0005.68,0003.94,0003.64
2023-02-16 12:41:00,,0826.2,5.03,0.00,21.9,22.8,00.0,30.6,23.9,06.5,0000.0,0005.78,0003.93,0003.61
2023-02-16 12:42:00,,0826.2,4.95,0.00,22.0,22.1,00.0,30.7,23.8,06.5,0000.0,0005.62,0003.87,0003.57
2023-02-16 12:43:00,,0826.2,4.99,0.00,21.9,21.3,00.0,30.7,23.5,06.5,0000.0,0005.57,0003.83,0003.54
2023-02-16 12:44:00,,0826.2,5.01,0.00,21.8,20.6,00.0,30.7,23.3,06.5,0000.0,0005.49,0003.79,0003.50
2023-02-16 12:45:00,,0826.3,4.98,0.00,21.7,20.1,00.0,30.7,23.1,06.5,0000.0,0005.36,0003.75,0003.47
2023-02-16 12:46:00,,0826.4,5.00,0.00,21.6,19.7,00.0,30.7,23.0,06.5,0000.0,0005.48,0003.72,0003.44
2023-02-16 12:47:00,,0826.4,5.03,0.00,21.6,20.3,00.0,30.7,23.2,06.5,0000.0,0005.55,0003.69,0003.41
2023-02-16 12:48:00,,0826.4,5.03,0.00,21.8,21.5,00.0,30.6,23.5,06.4,0000.0,0005.29,0003.64,0003.39
2023-02-16 12:49:00,,0826.4,5.03,0.00,21.9,22.6,00.0,30.6,23.8,06.4,0000.0,0005.21,0003.61,0003.37
2023-02-16 12:50:00,,0826.4,5.02,0.00,22.0,22.9,00.0,30.7,24.0,06.3,0000.0,0005.33,0003.64,0003.37
2023-02-16 12:51:00,,0826.4,4.96,0.00,22.0,22.2,00.0,30.7,23.9,06.3,0000.0,0005.31,0003.64,0003.37
2023-02-16 12:52:00,,0826.4,4.99,0.00,22.0,21.6,00.0,30.8,23.7,06.3,0000.0,0005.20,0003.63,0003.39
2023-02-16 12:53:00,,0826.4,5.00,0.00,22.0,21.2,00.0,30.8,23.6,06.3,0000.0,0005.23,0003.66,0003.42
2023-02-16 12:54:00,,0826.4,4.98,0.00,21.9,20.8,00.0,30.8,23.6,06.3,0000.0,0005.26,0003.69,0003.45
2023-02-16 12:55:00,,0826.4,4.99,0.00,21.9,20.5,00.0,30.8,23.5,06.3,0000.0,0005.28,0003.72,0003.49
2023-02-16 12:56:00,,0826.4,5.01,0.00,21.9,20.3,00.0,30.8,23.4,06.3,0000.0,0005.50,0003.79,0003.54
2023-02-16 12:57:00,,0826.5,5.01,0.00,21.9,21.1,00.0,30.7,23.6,06.2,0000.0,0005.60,0003.84,0003.59
2023-02-16 12:58:00,,0826.5,4.95,0.00,22.0,22.2,00.0,30.7,23.9,06.2,0000.0,0005.57,0003.88,0003.63
2023-02-16 12:59:00,,0826.5,4.99,0.00,22.1,23.1,00.0,30.8,24.2,06.2,0000.0,0005.81,0003.92,0003.66
